ELECTRON KICK STAGE R/B, 60085

Orbit data source: Space-Track

ELECTRON KICK STAGE R/B, 60085 is space debris in SSO originally from a launch on Thu, 20 Jun 2024 UTC via an Electron launch vehicle from the Rocket Lab Launch Complex (RLLC). Debris objects in space refer to the collection of defunct objects orbiting the Earth. Examples of debris include non-operational satellites, rocket bodies, and fragments generated from explosions, collisions, or faulty payload assembly.

Loading next visibility...
ELECTRON KICK STAGE R/B details
Identifier
60085, 2024-114G
Orbit
SSO
Last TLE update14 hours ago
Origin
Flag of USRocket Lab (US)
ManufacturerRocket Lab
MissionOperational spacecraft
Bus & MotorKICK STAGE, CURIE
Mass~50 kg wet, ~50 kg dry
Launch date (UTC)
2024-06-20 (8 months ago)
Launch vehicle
Electron
Launch site
Rocket Lab Launch Complex (RLLC)
Object type
Payload
Rocket body
Debris
Shape & HBRTrunc Cone, 1.4 m
Radar Cross Section0.760 m², Medium (>0.1 m² and < 1m²)

Expand to show TLE details & history

TLE from 14 hours ago
0 ELECTRON KICK STAGE R/B
1 60085U 24114G   25045.05519755  .00012013  00000-0  80077-3 0  9996
2 60085  98.0015  74.5160 0076584 316.2784  43.2391 15.04822727 35747
Epoch: 2025-02-14T01:19Z
Definitive object data (Epoch: 2025-02-14T01:19:29.068Z)
Latitude-0.00004°
Longitude-89.67757°
Altitude516.622 km
Speed7.626 km/s
True Right ascension04h 58m 03s
True Declination0° 00' 00"
Sunlit
Object was in daylight at TLE epoch
Visualization TLE readout
Latitude-4.41486°
Longitude-88.44021°
Altitude515.762 km
Speed7.627 km/s
Apparent Right ascension05h 34m 40s
Apparent Declination-21° 35' 56"
Sunlit
Object is in daylight
Visualization observer readout
Local Sidereal Time18:19:14
Azimuth30.666° NE
Elevation-69.372°
Doppler factor1
Orbital elements
Apogee altitude602.113 km
Perigee altitude496.011 km
Semi-major axis6,927.199 km
Eccentricity0.0076584
Inclination98.0015°
RAAN74.516°
Arg. of periapsis316.2784°
True anomaly43.8445°
Mean anomaly43.2391°
Eccentric anomaly43.54138°
Mean motion3.76449 °/min
BSTAR0.00080077
Orbital period95.63 mins
Loading maneuver chart data...
Loading historical data...
Loading historical data...
Loading historical data...
Loading historical data...
Loading historical data...
Loading historical data...
Loading historical data...

ELECTRON KICK STAGE R/B Visibility forecast

Observer location: undefined°, undefined

Span
Click to sort rows by Start time (UTC) header in descending order
Start Az.
Max El. time (UTC)
Max El. Az.
Max El.
End time (UTC)
End Az.
6 mins2025-02-15 01:24:04.528Z135.316° SSE2025-02-15 01:27:04.528Z59.453° ENE32.239°2025-02-15 01:30:04.528Z4.863° NNE
7 mins2025-02-15 14:36:04.528Z19.975° NNE2025-02-15 14:39:04.528Z92.836° ESE43.228°2025-02-15 14:43:04.528Z185.694° SSW
|